| time (UTC) | temp C | wind direction | speed KPH | gust KPH | rain 1hr cm | rain 24hr cm | rain mn cm | humidity % | barometer mb |
| 20260510094838 | 11 | 136 | 0.0 | 0.0 | 0.00 | 0.00 | 0.00 | 99 | 1015.1 |
| 20260510093836 | 11 | 135 | 0.0 | 0.0 | 0.00 | 0.00 | 0.00 | 99 | 1015.0 |
| 20260510092834 | 11 | 135 | 0.0 | 0.0 | 0.00 | 0.00 | 0.00 | 98 | 1014.7 |
| 20260510091832 | 11 | 134 | 0.0 | 0.0 | 0.00 | 0.00 | 0.00 | 98 | 1014.7 |
| 20260510090831 | 11 | 134 | 0.0 | 0.0 | 0.00 | 0.00 | 0.00 | 98 | 1014.8 |
| 20260510085830 | 11 | 134 | 0.0 | 0.0 | 0.00 | 0.00 | 0.00 | 98 | 1014.8 |
| 20260510084826 | 11 | 134 | 0.0 | 0.0 | 0.00 | 0.00 | 0.00 | 98 | 1014.7 |
| 20260510083826 | 12 | 138 | 0.0 | 1.6 | 0.00 | 0.00 | 0.00 | 98 | 1015.0 |
| 20260510082824 | 12 | 139 | 0.0 | 0.0 | 0.00 | 0.00 | 0.00 | 98 | 1014.8 |
| 20260510081820 | 11 | 132 | 0.0 | 3.2 | 0.00 | 0.00 | 0.00 | 98 | 1014.8 |
| 20260510080818 | 11 | 166 | 0.0 | 0.0 | 0.00 | 0.00 | 0.00 | 97 | 1014.6 |
| 20260510075816 | 11 | 166 | 0.0 | 0.0 | 0.00 | 0.00 | 0.00 | 97 | 1014.3 |
| 20260510074816 | 11 | 166 | 0.0 | 0.0 | 0.00 | 0.00 | 0.00 | 97 | 1014.1 |
| 20260510073815 | 12 | 166 | 0.0 | 0.0 | 0.00 | 0.00 | 0.00 | 97 | 1014.1 |
| 20260510072813 | 12 | 166 | 0.0 | 0.0 | 0.00 | 0.00 | 0.00 | 97 | 1014.3 |
| 20260510071812 | 12 | 166 | 0.0 | 0.0 | 0.00 | 0.00 | 0.00 | 97 | 1014.0 |
| 20260510070808 | 12 | 166 | 0.0 | 0.0 | 0.00 | 0.00 | 0.00 | 96 | 1014.0 |
| 20260510065804 | 12 | 166 | 0.0 | 0.0 | 0.00 | 0.00 | 0.00 | 96 | 1014.0 |
| 20260510064804 | 12 | 166 | 0.0 | 0.0 | 0.00 | 0.00 | 0.00 | 95 | 1013.7 |
| 20260510063802 | 12 | 166 | 0.0 | 0.0 | 0.00 | 0.00 | 0.00 | 95 | 1013.5 |
| 20260510062802 | 12 | 166 | 0.0 | 0.0 | 0.00 | 0.00 | 0.00 | 95 | 1013.5 |
| 20260510061759 | 12 | 166 | 0.0 | 0.0 | 0.00 | 0.00 | 0.00 | 95 | 1013.4 |
| 20260510060757 | 12 | 166 | 0.0 | 0.0 | 0.00 | 0.00 | 0.00 | 94 | 1013.9 |
| 20260510055757 | 12 | 166 | 0.0 | 0.0 | 0.00 | 0.00 | 0.00 | 94 | 1013.7 |
| 20260510054755 | 12 | 166 | 0.0 | 0.0 | 0.00 | 0.00 | 0.00 | 93 | 1013.8 |
| 20260510053751 | 13 | 166 | 0.0 | 0.0 | 0.00 | 0.00 | 0.00 | 92 | 1013.5 |
| 20260510052750 | 13 | 166 | 0.0 | 0.0 | 0.00 | 0.00 | 0.00 | 92 | 1013.6 |
| 20260510051748 | 13 | 166 | 0.0 | 0.0 | 0.00 | 0.00 | 0.00 | 91 | 1013.8 |
| 20260510050747 | 13 | 166 | 0.0 | 0.0 | 0.00 | 0.00 | 0.00 | 90 | 1014.0 |
| 20260510045747 | 13 | 166 | 0.0 | 0.0 | 0.00 | 0.00 | 0.00 | 90 | 1013.8 |
| 20260510044747 | 14 | 166 | 0.0 | 0.0 | 0.00 | 0.00 | 0.00 | 89 | 1013.7 |
| 20260510043745 | 14 | 166 | 0.0 | 0.0 | 0.00 | 0.00 | 0.00 | 88 | 1013.8 |
| 20260510042745 | 15 | 166 | 0.0 | 0.0 | 0.00 | 0.00 | 0.00 | 87 | 1013.6 |
| 20260510041744 | 15 | 166 | 0.0 | 0.0 | 0.00 | 0.00 | 0.00 | 86 | 1013.8 |
| 20260510040744 | 15 | 166 | 1.6 | 1.6 | 0.00 | 0.00 | 0.00 | 87 | 1013.5 |
| 20260510035742 | 15 | 166 | 0.0 | 0.0 | 0.00 | 0.00 | 0.00 | 87 | 1013.7 |
| 20260510034740 | 15 | 166 | 0.0 | 0.0 | 0.00 | 0.00 | 0.00 | 87 | 1013.4 |
| 20260510033740 | 15 | 166 | 0.0 | 0.0 | 0.00 | 0.00 | 0.00 | 87 | 1013.5 |
| 20260510032739 | 15 | 166 | 0.0 | 0.0 | 0.00 | 0.00 | 0.00 | 87 | 1013.5 |
| 20260510031737 | 15 | 166 | 0.0 | 0.0 | 0.00 | 0.00 | 0.00 | 87 | 1013.6 |
| 20260510030733 | 15 | 166 | 0.0 | 0.0 | 0.00 | 0.00 | 0.00 | 87 | 1013.8 |
| 20260510025727 | 15 | 166 | 0.0 | 0.0 | 0.00 | 0.00 | 0.00 | 86 | 1013.6 |
| 20260510024728 | 15 | 166 | 0.0 | 0.0 | 0.00 | 0.00 | 0.00 | 84 | 1013.5 |
| 20260510023725 | 15 | 166 | 0.0 | 0.0 | 0.00 | 0.00 | 0.00 | 83 | 1013.5 |
| 20260510022725 | 16 | 166 | 0.0 | 0.0 | 0.00 | 0.00 | 0.00 | 83 | 1013.1 |
| 20260510021720 | 16 | 166 | 0.0 | 0.0 | 0.00 | 0.00 | 0.00 | 82 | 1013.4 |
| 20260510020719 | 16 | 166 | 0.0 | 0.0 | 0.00 | 0.00 | 0.00 | 82 | 1013.0 |
| 20260510015715 | 16 | 166 | 0.0 | 0.0 | 0.00 | 0.00 | 0.00 | 81 | 1013.2 |
| 20260510014713 | 16 | 166 | 0.0 | 0.0 | 0.00 | 0.00 | 0.00 | 81 | 1012.9 |
| 20260510013711 | 16 | 166 | 0.0 | 0.0 | 0.00 | 0.00 | 0.00 | 81 | 1012.8 |
| 20260510012707 | 16 | 166 | 0.0 | 0.0 | 0.00 | 0.00 | 0.00 | 80 | 1012.9 |
| 20260510011703 | 16 | 166 | 0.0 | 0.0 | 0.00 | 0.00 | 0.00 | 80 | 1012.5 |
| 20260510010701 | 16 | 166 | 0.0 | 0.0 | 0.00 | 0.00 | 0.00 | 79 | 1012.4 |
| 20260510005701 | 16 | 166 | 0.0 | 0.0 | 0.00 | 0.00 | 0.00 | 78 | 1012.5 |
| 20260510004655 | 17 | 166 | 0.0 | 0.0 | 0.00 | 0.00 | 0.00 | 77 | 1012.3 |
| 20260510003650 | 17 | 166 | 0.0 | 0.0 | 0.00 | 0.00 | 0.00 | 76 | 1012.3 |
| 20260510002646 | 17 | 166 | 0.0 | 0.0 | 0.00 | 0.00 | 0.00 | 74 | 1012.3 |
| 20260510001645 | 18 | 166 | 0.0 | 0.0 | 0.00 | 0.00 | 0.00 | 72 | 1012.3 |
| 20260510000644 | 19 | 166 | 0.0 | 0.0 | 0.00 | 0.00 | 0.00 | 70 | 1012.1 |
| 20260509235644 | 20 | 166 | 0.0 | 0.0 | 0.00 | 0.00 | 0.00 | 68 | 1012.0 |
| 20260509234643 | 20 | 166 | 0.0 | 0.0 | 0.00 | 0.00 | 0.00 | 64 | 1012.2 |
| 20260509233638 | 21 | 166 | 0.0 | 0.0 | 0.00 | 0.00 | 0.00 | 62 | 1011.8 |
| 20260509232636 | 21 | 166 | 0.0 | 0.0 | 0.00 | 0.00 | 0.00 | 60 | 1011.7 |
| 20260509231636 | 21 | 166 | 0.0 | 0.0 | 0.00 | 0.00 | 0.00 | 56 | 1012.0 |
| 20260509230636 | 21 | 166 | 0.0 | 1.6 | 0.00 | 0.00 | 0.00 | 56 | 1011.6 |
| 20260509225635 | 21 | 166 | 0.0 | 1.6 | 0.00 | 0.00 | 0.00 | 54 | 1011.7 |
| 20260509224632 | 22 | 166 | 1.6 | 3.2 | 0.00 | 0.00 | 0.00 | 53 | 1011.8 |
| 20260509223626 | 22 | 186 | 0.0 | 0.0 | 0.00 | 0.00 | 0.00 | 51 | 1011.8 |
| 20260509222626 | 22 | 159 | 0.0 | 0.0 | 0.00 | 0.00 | 0.00 | 49 | 1011.5 |
| 20260509221624 | 22 | 186 | 0.0 | 1.6 | 0.00 | 0.00 | 0.00 | 51 | 1011.8 |
| 20260509220621 | 22 | 186 | 1.6 | 3.2 | 0.00 | 0.00 | 0.00 | 49 | 1012.1 |
| 20260509215620 | 22 | 167 | 0.0 | 0.0 | 0.00 | 0.00 | 0.00 | 53 | 1011.8 |
| 20260509214620 | 22 | 166 | 0.0 | 1.6 | 0.00 | 0.00 | 0.00 | 53 | 1011.7 |
| 20260509213618 | 22 | 169 | 1.6 | 3.2 | 0.00 | 0.00 | 0.00 | 53 | 1011.6 |
| 20260509212618 | 22 | 152 | 1.6 | 3.2 | 0.00 | 0.00 | 0.00 | 53 | 1011.3 |
| 20260509211617 | 22 | 154 | 0.0 | 1.6 | 0.00 | 0.00 | 0.00 | 52 | 1011.6 |
| 20260509210616 | 22 | 157 | 1.6 | 1.6 | 0.00 | 0.00 | 0.00 | 53 | 1011.6 |
| 20260509205613 | 23 | 169 | 0.0 | 0.0 | 0.00 | 0.00 | 0.00 | 55 | 1011.6 |
| 20260509204611 | 22 | 164 | 0.0 | 1.6 | 0.00 | 0.00 | 0.00 | 56 | 1011.7 |
| 20260509203609 | 22 | 198 | 1.6 | 1.6 | 0.00 | 0.00 | 0.00 | 55 | 1011.6 |
| 20260509202608 | 22 | 181 | 1.6 | 3.2 | 0.00 | 0.00 | 0.00 | 56 | 1011.3 |
| 20260509201604 | 22 | 183 | 3.2 | 3.2 | 0.00 | 0.00 | 0.00 | 55 | 1011.4 |
| 20260509200602 | 22 | 231 | 3.2 | 4.8 | 0.00 | 0.00 | 0.00 | 54 | 1011.4 |
| 20260509195600 | 22 | 147 | 3.2 | 4.8 | 0.00 | 0.00 | 0.00 | 55 | 1011.9 |
| 20260509194600 | 22 | 186 | 0.0 | 1.6 | 0.00 | 0.00 | 0.00 | 55 | 1011.7 |
| 20260509193600 | 22 | 209 | 1.6 | 1.6 | 0.00 | 0.00 | 0.00 | 56 | 1012.0 |
| 20260509192559 | 21 | 183 | 3.2 | 4.8 | 0.00 | 0.00 | 0.00 | 57 | 1012.3 |
| 20260509191554 | 21 | 188 | 1.6 | 4.8 | 0.00 | 0.00 | 0.00 | 57 | 1012.4 |
| 20260509190553 | 21 | 187 | 1.6 | 3.2 | 0.00 | 0.00 | 0.00 | 59 | 1012.4 |
| 20260509185548 | 20 | 177 | 0.0 | 1.6 | 0.00 | 0.00 | 0.00 | 61 | 1012.4 |
| 20260509184543 | 20 | 186 | 1.6 | 1.6 | 0.00 | 0.00 | 0.00 | 60 | 1012.6 |
| 20260509183540 | 20 | 165 | 1.6 | 3.2 | 0.00 | 0.00 | 0.00 | 60 | 1012.5 |
| 20260509182539 | 20 | 168 | 1.6 | 1.6 | 0.00 | 0.00 | 0.00 | 63 | 1012.7 |
| 20260509181534 | 20 | 173 | 0.0 | 3.2 | 0.00 | 0.00 | 0.00 | 61 | 1012.8 |
| 20260509180532 | 20 | 193 | 1.6 | 3.2 | 0.00 | 0.00 | 0.00 | 62 | 1013.2 |
| 20260509175531 | 20 | 187 | 1.6 | 3.2 | 0.00 | 0.00 | 0.00 | 62 | 1013.4 |
| 20260509174530 | 19 | 158 | 0.0 | 3.2 | 0.00 | 0.00 | 0.00 | 63 | 1013.7 |
| 20260509173526 | 20 | 186 | 1.6 | 1.6 | 0.00 | 0.00 | 0.00 | 62 | 1013.6 |
| 20260509172526 | 20 | 178 | 0.0 | 0.0 | 0.00 | 0.00 | 0.00 | 62 | 1013.3 |
| 20260509171523 | 20 | 195 | 1.6 | 3.2 | 0.00 | 0.00 | 0.00 | 60 | 1013.5 |
| 20260509170521 | 20 | 266 | 3.2 | 4.8 | 0.00 | 0.00 | 0.00 | 60 | 1013.7 |
| 20260509165522 | 19 | 153 | 1.6 | 4.8 | 0.00 | 0.00 | 0.00 | 61 | 1013.4 |
| 20260509164519 | 20 | 188 | 1.6 | 3.2 | 0.00 | 0.00 | 0.00 | 63 | 1013.7 |
| 20260509163519 | 19 | 145 | 1.6 | 3.2 | 0.00 | 0.00 | 0.00 | 64 | 1013.9 |
| 20260509162517 | 19 | 163 | 0.0 | 1.6 | 0.00 | 0.00 | 0.00 | 63 | 1013.9 |
| 20260509161516 | 18 | 185 | 0.0 | 1.6 | 0.00 | 0.00 | 0.00 | 64 | 1013.6 |
| 20260509160512 | 18 | 173 | 1.6 | 1.6 | 0.00 | 0.00 | 0.00 | 64 | 1013.7 |
| 20260509155509 | 19 | 101 | 3.2 | 3.2 | 0.00 | 0.00 | 0.00 | 62 | 1013.7 |
| 20260509154508 | 18 | 155 | 0.0 | 3.2 | 0.00 | 0.00 | 0.00 | 62 | 1014.0 |
| 20260509153508 | 18 | 185 | 1.6 | 3.2 | 0.00 | 0.00 | 0.00 | 63 | 1014.0 |
| 20260509152506 | 19 | 155 | 1.6 | 3.2 | 0.00 | 0.00 | 0.00 | 61 | 1013.9 |
| 20260509151505 | 18 | 180 | 1.6 | 3.2 | 0.00 | 0.00 | 0.00 | 62 | 1014.0 |
| 20260509150500 | 18 | 176 | 0.0 | 3.2 | 0.00 | 0.00 | 0.00 | 63 | 1014.0 |
| 20260509145500 | 17 | 171 | 1.6 | 3.2 | 0.00 | 0.00 | 0.00 | 66 | 1014.3 |
| 20260509144459 | 17 | 170 | 1.6 | 3.2 | 0.00 | 0.00 | 0.00 | 65 | 1014.4 |
| 20260509143458 | 16 | 137 | 1.6 | 3.2 | 0.00 | 0.00 | 0.00 | 66 | 1014.6 |
| 20260509142457 | 16 | 148 | 1.6 | 1.6 | 0.00 | 0.00 | 0.00 | 69 | 1014.7 |
| 20260509141455 | 15 | 157 | 1.6 | 3.2 | 0.00 | 0.00 | 0.00 | 67 | 1014.9 |
| 20260509140454 | 15 | 168 | 1.6 | 1.6 | 0.00 | 0.00 | 0.00 | 69 | 1014.8 |
| 20260509135450 | 15 | 168 | 0.0 | 1.6 | 0.00 | 0.00 | 0.00 | 68 | 1014.5 |
| 20260509134445 | 15 | 167 | 0.0 | 1.6 | 0.00 | 0.00 | 0.00 | 70 | 1014.5 |
| 20260509133444 | 14 | 167 | 1.6 | 1.6 | 0.00 | 0.00 | 0.00 | 69 | 1014.8 |
| 20260509132440 | 14 | 165 | 0.0 | 0.0 | 0.00 | 0.00 | 0.00 | 69 | 1014.8 |
| 20260509131440 | 14 | 165 | 0.0 | 1.6 | 0.00 | 0.00 | 0.00 | 69 | 1014.8 |
| 20260509130438 | 13 | 179 | 0.0 | 1.6 | 0.00 | 0.00 | 0.00 | 69 | 1014.9 |
| 20260509125438 | 13 | 186 | 0.0 | 1.6 | 0.00 | 0.00 | 0.00 | 68 | 1014.7 |
| 20260509124437 | 13 | 176 | 0.0 | 1.6 | 0.00 | 0.00 | 0.00 | 68 | 1014.6 |
| 20260509123437 | 13 | 183 | 0.0 | 1.6 | 0.00 | 0.00 | 0.00 | 67 | 1014.6 |
| 20260509122436 | 13 | 172 | 1.6 | 3.2 | 0.00 | 0.00 | 0.00 | 66 | 1014.6 |
| 20260509121435 | 13 | 153 | 1.6 | 1.6 | 0.00 | 0.00 | 0.00 | 66 | 1014.6 |
| 20260509120431 | 13 | 153 | 1.6 | 1.6 | 0.00 | 0.00 | 0.00 | 65 | 1014.8 |
| 20260509115426 | 13 | 177 | 1.6 | 3.2 | 0.00 | 0.00 | 0.00 | 64 | 1014.6 |
| 20260509114422 | 13 | 172 | 1.6 | 3.2 | 0.00 | 0.00 | 0.00 | 62 | 1014.6 |
| 20260509113418 | 14 | 160 | 1.6 | 1.6 | 0.00 | 0.00 | 0.00 | 61 | 1014.6 |
| 20260509112418 | 14 | 165 | 1.6 | 3.2 | 0.00 | 0.00 | 0.00 | 60 | 1014.8 |
| 20260509111418 | 14 | 176 | 1.6 | 1.6 | 0.00 | 0.00 | 0.00 | 60 | 1014.6 |
| 20260509110417 | 14 | 177 | 0.0 | 1.6 | 0.00 | 0.00 | 0.00 | 59 | 1014.4 |
| 20260509105413 | 14 | 174 | 1.6 | 1.6 | 0.00 | 0.00 | 0.00 | 59 | 1014.1 |
| 20260509104413 | 13 | 173 | 0.0 | 1.6 | 0.00 | 0.00 | 0.00 | 59 | 1014.0 |
| 20260509103413 | 14 | 173 | 1.6 | 1.6 | 0.00 | 0.00 | 0.00 | 59 | 1014.1 |
| 20260509102409 | 14 | 173 | 1.6 | 1.6 | 0.00 | 0.00 | 0.00 | 59 | 1014.3 |
| 20260509101407 | 13 | 173 | 0.0 | 1.6 | 0.00 | 0.00 | 0.00 | 59 | 1014.1 |
| 20260509100407 | 13 | 173 | 0.0 | 1.6 | 0.00 | 0.00 | 0.00 | 59 | 1014.1 |
| 20260509095408 | 14 | 173 | 0.0 | 0.0 | 0.00 | 0.00 | 0.00 | 58 | 1014.0 |